Regional Weather Roundup
Issued by NWS Huntsville, AL

Home | Current Version | Previous Version | Text Only | Print | Product List | Glossary On
Versions: 1 2 3 4 5 6 7 8 9 10 11 12 13 14 15 16 17 18 19 20 21 22 23 24 25 26 27 28 29 30 31 32 33 34 35 36 37 38 39 40 41 42 43 44 45 46 47 48 49 50
000
ASUS44 KHUN 151510
RWRHUN

WEATHER ROUNDUP FOR THE TENNESSEE VALLEY
NATIONAL WEATHER SERVICE HUNTSVILLE AL
900 AM CST FRI DEC 15 2017

ALZ001>004-151600-
NORTHWEST ALABAMA

CITY           SKY/WX    TMP DP  RH WIND       PRES   REMARKS
COURTLAND HCN    N/A     32 N/A N/A NW3         N/A
RUSSELLVILLE     N/A     32 N/A N/A MISG        N/A
SHOALS AIRPORT CLOUDY    34  23  64 NW6       30.21R WCI  29
SHOALS TVA RES   N/A     32 N/A N/A MISG        N/A
$$

ALZ005>007-016-151600-
NORTH CENTRAL ALABAMA

CITY           SKY/WX    TMP DP  RH WIND       PRES   REMARKS
CULLMAN AG STN   N/A     32 N/A N/A NW6         N/A  WCI  26
DECATUR AP     CLOUDY    33  26  75 NW14      30.18S WCI  23
HUNTSVILLE AP  PTSUNNY   33  27  78 NW9       30.17R WCI  25
MERIDIANVILLE  CLOUDY    32  27  80 NW8       30.16S WCI  25
REDSTONE ARSN  MOSUNNY   33  25  72 N8        30.16S WCI  26
VINEMONT AP    FAIR      31  24  73 N7        30.16S WCI  25
$$

ALZ008>010-151600-
NORTHEAST ALABAMA

CITY           SKY/WX    TMP DP  RH WIND       PRES   REMARKS
ALBERTVILLE    CLOUDY    32  28  86 NW8       30.13R WCI  25
FORT PAYNE     MOSUNNY   32  19  59 N13G18    30.13R WCI  22
SCOTTSBORO AP  CLOUDY    34  21  60 N8        30.16R WCI  27
SCOTTSBORO HCN   N/A     32 N/A N/A MISG        N/A
VALLEY HEAD      N/A     32 N/A N/A MISG        N/A
$$

TNZ076-096-097-151600-
SOUTHEASTERN MIDDLE TENNESSEE

CITY           SKY/WX    TMP DP  RH WIND       PRES   REMARKS
TULLAHOMA      CLOUDY    30  23  74 NW9       30.14R WCI  22
WINCHESTER     CLOUDY    30  23  74 NW7       30.15R WCI  23
$$

...SURROUNDING SITES...

CITY           SKY/WX    TMP DP  RH WIND       PRES   REMARKS
ATLANTA        PTSUNNY   38  30  73 NW10      30.06R WCI  31
ANNISTON       CLOUDY    37  24  59 VRB6      30.14R WCI  32
BIRMINGHAM     CLOUDY    35  24  64 NW9       30.20R WCI  28
CHATTANOOGA    CLOUDY    34  22  61 NW9       30.13R WCI  27
CORINTH        CLOUDY    32  27  80 VRB3      30.22R
DALTON         MOSUNNY   34  27  75 N7        30.13R WCI  28
GADSDEN        CLOUDY    35  25  66 NW8       30.17R WCI  29
GOLDEN TRNGL   PTSUNNY   36  28  73 NW6       30.23R WCI  31
HALEYVILLE     FAIR      34  27  75 N8        30.19S WCI  27
JACKSON TN     CLOUDY    34  25  69 NW8       30.23R WCI  27
MEMPHIS        CLOUDY    33  28  81 CALM      30.23R
NASHVILLE      CLOUDY    34  20  56 NW8       30.17R WCI  27
OXFORD MS      FAIR      30  27  86 CALM      30.26R
ROME           MOSUNNY   35  25  66 NW9       30.12R WCI  28
SAVANNAH       CLOUDY    32  28  86 CALM      30.20R
SELMER         MOSUNNY   32  25  74 W6        30.20R WCI  26
TUPELO         CLOUDY    34  26  72 NW5       30.23R WCI  30
TUSCALOOSA     CLOUDY    37  28  70 N6        30.21R WCI  32
$$

...GULF COAST WEATHER...

CITY           SKY/WX    TMP DP  RH WIND       PRES   REMARKS
GULFPORT       CLOUDY    48  37  65 N13       30.17R
PASCAGOULA     CLOUDY    47  36  65 N9        30.18R
MOBILE         CLOUDY    46  36  68 N8        30.17R
GULF SHORES    DRIZZLE   49  42  78 N9        30.15R
PENSACOLA      CLOUDY    50  42  74 N9        30.14R
DESTIN         CLOUDY    53  42  66 N8        30.12R
PANAMA CITY    PTSUNNY   58  42  55 N6        30.11R
APPALACHICOLA  SUNNY     64  43  46 N9        30.08R
$$




USA.gov is the U.S. government's official web portal to all federal, state and local government web resources and services.